SCP
0 0 0 0 0 0 0 0 0 0 0 0 0 0 0 0 0 0 0 0 0 0 0 0 0 0 0 0 0 0 0 0 0 0 0 0 0 0 0 0 0 0 0
0 0 0 0 0 0 0 0 0 0 0 0 0 0 0 0 0 0 0 0 0 0 0 0 0 0 0 0 0 0 0 0 0 0 0 0 0 0 0 0 0 0 0
0 0 0 0 0 0 0 0 0 0 0 0 0 0 0 0 0 0 0 0 0 0 0 0 0 0 0 0 0 0 0 0 0 0 0 0 0 0 0 0 0 0 0
0 0 0 0 0 0 0 0 0 0 0 0 0 0 0 0 0 0 0 0 0 0 0 0 0 0 0 0 0 0 0 0 0 0 0 0 0 0 0 0 0 0 0
0 0 0 0 0 0 0 0 0 0 0 0 0 0 0 0 0 0 0 0 0 0 0 0 0 0 0 0 0 0 0 0 0 0 0 0 0 0 0 0 0 0 0
0 0 0 0 0 0 0 0 0 0 0 0 0 0 0 0 0 0 0 0 0 0 0 0 0 0 0 0 0 0 0 0 0 0 0 0 0 0 0 0 0 0 0
0 0 0 0 0 0 0 0 0 0 0 0 0 0 0 0 0 0 0 0 0 0 0 0 0 0 0 0 0 0 0 0 0 0 0 0 0 0 0 0 0 0 0
0 0 0 0 0 0 0 0 0 0 0 0 0 0 0 0 0 0 0 0 0 0 0 0 0 0 0 0 0 0 0 0 0 0 0 0 0 0 0 0 0 0 0
0 0 0 0 0 0 0 0 0 0 0 0 0 0 0 0 0 0 0 0 0 0 0 0 0 0 0 0 0 0 0 0 0 0 0 0 0 0 0 0 0 0 0
0 0 0 0 0 0 0 0 0 0 0 0 0 0 0 0 0 0 0 0 0 0 0 0 0 0 0 0 0 0 0 0 0 0 0 0 0 0 0 0 0 0 0
0 0 0 0 0 0 0 0 0 0 0 0 0 0 0 0 0 0 0 0 0 0 0 0 0 0 0 0 0 0 0 0 0 0 0 0 0 0 0 0 0 0 0
0 0 0 0 0 0 0 0 0 0 0 0 0 0 0 0 0 0 0 0 0 0 0 0 0 0 0 0 0 0 0 0 0 0 0 0 0 0 0 0 0 0 0
0 0 0 0 0 0 0 0 0 0 0 0 0 0 0 0 0 0 0 0 0 0 0 0 0 0 0 0 0 0 0 0 0 0 0 0 0 0 0 0 0 0 0
0 0 0 0 0 0 0 0 0 0 0 0 0 0 0 0 0 0 0 0 0 0 0 0 0 0 0 0 0 0 0 0 0 0 0 0 0 0 0 0 0 0 0
0 0 0 0 0 0 0 0 0 0 0 0 0 0 0 0 0 0 0 0 0 0 0 0 0 0 0 0 0 0 0 0 0 0 0 0 0 0 0 0 0 0 0
0 0 0 0 0 0 0 0 0 0 0 0 0 0 0 0 0 0 0 0 0 0 0 0 0 0 0 0 0 0 0 0 0 0 0 0 0 0 0 0 0 0 0
0 0 0 0 0 0 0 0 0 0 0 0 0 0 0 0 0 0 0 0 0 0 0 0 0 0 0 0 0 0 0 0 0 0 0 0 0 0 0 0 0 0 0
0 0 0 0 0 0 0 0 0 0 0 0 0 0 0 0 0 0 0 0 0 0 0 0 0 0 0 0 0 0 0 0 0 0 0 0 0 0 0 0 0 0 0
0 0 0 0 0 0 0 0 0 0 0 0 0 0 0 0 0 0 0 0 0 0 0 0 0 0 0 0 0 0 0 0 0 0 0 0 0 0 0 0 0 0 0
0 0 0 0 0 0 0 0 0 0 0 0 0 0 0 0 0 0 0 0 0 0 0 0 0 0 0 0 0 0 0 0 0 0 0 0 0 0 0 0 0 0 0
0 0 0 0 0 0 0 0 0 0 0 0 0 0 0 0 0 0 0 0 0 0 0 0 0 0 0 0 0 0 0 0 0 0 0 0 0 0 0 0 0 0 0
0 0 0 0 0 0 0 0 0 0 0 0 0 0 0 0 0 0 0 0 0 0 0 0 0 0 0 0 0 0 0 0 0 0 0 0 0 0 0 0 0 0 0
0 0 0 0 0 0 0 0 0 0 0 0 0 0 0 0 0 0 0 0 0 0 0 0 0 0 0 0 0 0 0 0 0 0 0 0 0 0 0 0 0 0 0
0 0 0 0 0 0 0 0 0 0 0 0 0 0 0 0 0 0 0 0 0 0 0 0 0 0 0 0 0 0 0 0 0 0 0 0 0 0 0 0 0 0 0
0 0 0 0 0 0 0 0 0 0 0 0 0 0 0 0 0 0 0 0 0 0 0 0 0 0 0 0 0 0 0 0 0 0 0 0 0 0 0 0 0 0 0
0 0 0 0 0 0 0 0 0 0 0 0 0 0 0 0 0 0 0 0 0 0 0 0 0 0 0 0 0 0 0 0 0 0 0 0 0 0 0 0 0 0 0
Wind_Speed
7 6 4 4 4 4 4 5 5 6 6 6 6 7 6 6 5 5 4 8 10 13 14 14 15 15 15 15 15 15 15 15 15 15 16 16 16 16 17 17 17 17 18
8 8 7 6 5 5 4 5 6 6 5 5 6 6 6 5 5 5 4 5 8 9 12 13 13 13 13 13 13 13 13 14 14 14 14 14 15 15 15 15 16 16 16
10 9 8 7 6 6 6 5 6 5 5 5 6 5 5 5 5 5 4 3 4 6 9 11 11 12 12 12 12 12 12 12 12 12 12 12 13 13 13 14 14 15 15
12 10 8 8 8 7 7 7 6 5 5 5 4 3 3 4 5 4 4 3 3 3 4 8 8 10 11 11 11 11 10 10 10 10 10 10 11 11 12 12 13 13 14
13 11 9 8 9 8 7 8 6 6 6 6 4 3 2 2 3 4 4 3 3 3 3 5 5 5 9 10 10 10 9 9 9 8 8 9 9 9 10 10 11 12 13
14 12 9 10 11 9 8 8 8 5 6 6 6 3 2 1 1 2 3 3 2 3 3 3 3 2 5 8 9 9 9 8 8 7 7 7 7 8 8 9 10 11 12
14 13 9 11 11 11 12 12 7 9 6 6 5 2 1 1 1 2 2 3 3 3 3 3 2 2 1 3 6 9 9 8 7 6 5 5 5 6 7 8 9 10 11
14 12 13 11 12 10 11 12 10 7 5 8 5 4 3 3 4 5 4 5 5 4 4 5 4 3 2 1 3 8 8 8 7 6 4 3 3 4 5 6 8 9 10
13 13 14 12 13 12 13 15 15 14 10 9 6 7 7 9 4 4 6 6 6 5 5 5 6 5 5 3 1 5 7 7 6 5 4 2 2 2 4 5 7 8 10
10 12 13 13 13 12 13 14 16 12 11 11 7 5 3 5 6 5 3 6 8 9 8 8 7 7 6 5 5 7 9 8 7 6 4 2 1 1 3 4 6 8 9
8 10 11 12 13 13 14 15 16 14 11 11 9 6 4 2 2 5 5 6 7 9 9 8 7 7 8 7 5 8 12 11 9 7 6 4 3 2 2 4 6 7 9
7 9 10 11 12 12 14 15 16 18 15 13 11 8 8 7 8 6 6 5 7 7 8 8 9 8 8 8 10 15 15 14 12 10 8 6 5 4 3 4 6 7 9
7 10 10 11 11 12 13 13 14 15 17 16 15 13 11 8 5 6 6 4 5 3 5 7 9 9 9 8 9 18 16 16 14 12 10 8 7 6 5 5 6 8 9
9 9 11 12 12 12 12 13 13 14 13 16 17 15 11 9 7 7 7 7 5 4 6 8 8 11 10 9 13 19 11 17 16 14 12 10 9 7 7 6 7 8 9
6 9 11 12 12 12 12 12 12 14 14 15 15 15 13 9 8 7 6 7 9 9 12 11 8 11 11 9 16 11 9 16 17 15 13 11 10 9 8 8 8 9 10
8 9 11 12 12 12 12 13 12 12 14 14 12 14 15 10 8 8 8 8 7 8 8 10 10 7 12 11 17 11 11 18 17 16 14 12 11 10 9 9 9 9 10
8 9 10 11 13 13 13 13 14 12 14 15 14 15 16 13 11 10 9 8 8 7 8 4 5 5 11 11 10 9 8 9 8 15 15 13 12 11 10 10 10 10 10
8 9 10 11 12 13 12 14 15 14 14 15 15 15 16 12 15 11 11 12 11 9 8 7 6 6 8 12 10 10 8 7 6 13 15 14 13 12 11 10 10 10 10
8 8 9 12 12 12 12 14 14 13 14 15 13 15 15 14 16 13 12 12 10 9 6 6 6 5 3 7 8 6 7 5 6 8 12 13 13 12 12 11 10 9 10
9 9 10 11 11 11 12 12 12 12 12 12 12 13 13 15 16 14 13 12 10 10 8 7 6 6 4 6 7 7 6 5 5 5 8 9 10 11 12 11 10 9 10
9 9 9 10 10 9 10 11 11 11 12 12 11 11 12 14 16 14 11 12 12 11 9 8 7 7 6 8 10 7 7 5 4 4 4 4 4 4 5 8 9 10 11
8 8 9 9 10 10 13 18 14 10 11 11 11 10 10 11 14 19 19 18 18 15 13 11 9 11 11 9 8 7 7 6 5 5 5 4 4 5 5 4 9 11 10
8 8 9 9 11 13 17 17 18 11 10 10 10 9 7 7 10 10 15 20 19 21 20 13 12 12 12 12 12 11 9 7 5 5 5 4 4 5 4 5 10 10 9
7 8 8 9 9 10 15 16 15 12 10 10 9 9 9 8 9 10 9 11 11 12 15 10 9 9 9 11 12 11 9 6 3 4 6 4 4 4 3 3 9 9 8
7 6 6 7 8 9 12 14 13 7 8 9 8 8 9 8 13 17 12 10 10 8 13 12 11 11 15 17 14 9 8 6 4 5 5 4 3 2 2 2 4 8 7
6 5 5 5 6 7 10 13 13 5 6 6 5 6 9 12 14 18 12 11 11 9 9 10 11 13 12 14 18 11 10 7 4 5 6 6 4 3 2 2 2 2 2
Wind_Direction
163 160 158 158 153 141 137 130 123 117 110 106 103 102 93 81 68 54 41 71 109 120 119 116 114 111 108 104 100 97 94 91 87 83 79 76 72 68 64 60 57 53 49
170 169 169 171 169 159 148 139 135 126 118 116 112 111 107 98 82 69 51 48 70 110 123 123 121 119 115 111 107 104 100 96 91 86 82 77 73 68 63 59 55 51 46
177 176 177 180 175 159 146 134 126 121 123 121 119 119 116 111 103 86 69 52 47 69 118 128 128 126 123 119 115 111 106 102 96 90 84 79 74 69 63 57 53 48 43
181 179 181 184 173 162 158 152 149 139 135 132 128 123 117 118 116 108 91 77 63 51 88 119 133 138 135 131 127 122 115 109 102 95 88 81 75 69 63 56 50 44 39
186 184 186 183 172 168 166 164 161 149 149 140 125 109 107 117 128 129 123 112 100 87 68 85 80 130 149 145 140 135 128 120 112 102 93 84 76 68 60 53 46 40 34
191 189 187 181 175 172 172 170 164 150 144 140 120 92 66 82 126 156 160 153 146 131 113 97 65 54 146 157 155 150 143 135 125 114 101 88 77 66 56 48 40 34 29
192 192 188 183 181 182 181 173 159 152 144 141 113 95 21 351 232 210 198 189 188 177 162 151 134 100 81 157 176 167 160 152 142 130 114 95 78 64 51 42 34 27 22
194 195 191 187 187 185 181 176 161 159 161 173 147 140 176 249 246 218 205 203 201 194 192 184 171 161 146 112 212 179 173 165 157 148 134 114 85 61 44 33 26 20 16
199 197 196 191 191 189 187 184 180 174 176 191 187 165 167 202 203 216 215 208 200 201 203 194 190 183 176 171 194 197 184 178 171 165 159 143 99 51 32 22 15 10 7
206 202 198 196 195 196 194 190 190 189 179 187 203 220 197 150 165 188 223 217 207 207 204 202 197 193 184 180 194 198 191 188 186 185 186 188 192 7 8 4 2 0 359
212 209 204 202 200 201 200 195 195 197 196 193 190 176 175 168 170 162 193 202 212 215 206 204 199 199 193 188 190 203 199 196 196 198 204 214 231 276 324 340 345 348 349
215 215 211 210 208 206 205 202 200 202 205 205 202 194 180 176 188 182 179 188 206 206 201 202 203 202 198 194 197 201 203 203 203 203 210 221 234 255 291 316 327 335 338
218 217 214 218 217 215 211 206 206 207 210 210 210 212 215 208 176 174 170 165 185 188 196 210 209 202 201 197 202 202 206 207 208 208 212 222 234 247 271 294 310 321 328
219 211 214 221 222 219 216 213 212 213 213 217 219 218 219 216 196 183 174 161 163 192 207 213 203 204 202 195 203 202 205 207 210 212 216 223 233 245 261 280 297 309 317
213 207 213 220 223 222 221 219 223 218 216 218 222 222 223 221 209 201 186 183 178 191 213 209 200 200 198 191 201 197 192 208 211 214 218 225 234 245 258 272 287 299 310
213 207 213 218 222 224 222 224 230 225 221 221 219 222 224 221 215 204 202 204 206 206 215 199 199 188 189 194 200 192 194 203 211 216 221 227 236 245 256 269 280 292 304
217 215 214 215 219 222 221 225 231 229 228 227 222 222 224 218 217 212 206 205 208 204 219 195 175 172 183 190 191 186 188 194 205 216 222 228 237 246 255 265 274 286 298
224 219 214 217 220 221 219 223 229 230 232 232 228 224 224 218 219 215 209 210 210 205 201 190 177 175 188 191 183 182 187 193 195 214 221 229 236 245 253 261 271 281 293
232 223 217 220 221 220 220 223 228 230 233 236 232 227 224 217 220 216 212 211 208 200 191 178 173 167 160 173 173 178 182 184 194 213 223 230 236 244 251 259 267 278 290
234 229 224 225 223 220 220 222 225 230 235 239 237 233 227 220 220 215 213 210 199 192 185 175 166 164 155 158 170 176 185 189 199 198 219 227 234 242 250 256 264 276 285
243 238 231 229 225 221 222 221 223 228 233 239 239 236 232 226 221 214 209 202 193 192 184 183 175 167 167 169 184 182 186 177 198 194 201 216 220 229 239 253 260 268 278
251 243 236 232 229 229 228 222 220 226 230 236 240 238 232 225 222 218 214 205 196 191 188 185 184 184 183 177 170 172 166 167 203 194 190 215 204 225 225 221 249 263 274
253 246 242 235 236 236 233 228 224 222 228 233 235 234 230 220 212 213 216 212 207 206 197 187 186 185 178 177 171 174 180 182 189 165 167 209 201 226 220 231 250 259 269
252 250 245 239 240 243 239 237 231 227 232 233 230 226 225 217 206 201 200 201 197 201 201 195 186 181 176 173 176 176 172 160 120 158 169 199 196 215 214 225 249 253 266
264 252 247 238 240 247 242 242 236 231 235 235 229 221 215 211 209 204 197 196 192 194 197 186 180 174 174 171 164 151 153 162 183 191 183 190 186 196 222 234 244 249 257
271 266 261 247 242 248 248 246 240 230 235 235 227 218 214 210 209 205 196 191 191 182 169 171 174 175 172 174 175 173 171 175 169 189 184 180 171 163 226 234 229 236 254